Location: Unspecified
(42.3650°N, 71.1030°W)
Time: 16:51:25
(UTC+00:00)

Daily predictions for brighter satellites

Satellite Brightness Start Highest point End
(mag) Time Altitude Azimuth Time Altitude Azimuth Time Altitude Azimuth
NOAA 6 4.1 22:53:20 10° SSE 22:58:30 80° ENE 23:03:42 10° NNW
Cosmos 1862 4.3 22:58:32 10° SSW 23:02:16 51° W 23:06:01 10° N
CZ-4B R/B 3.8 22:59:46 10° SE 23:03:32 31° ENE 23:07:23 10° N
Cosmos 1953 Rocket 3.6 22:59:33 10° S 23:03:54 88° E 23:08:20 10° N
Cosmos 2278 3.7 23:01:20 10° NNW 23:07:02 84° ENE 23:12:42 10° SSE
Cosmos 2034 Rocket 4.1 23:00:54 10° S 23:07:04 62° E 23:13:20 10° NNE
Landsat 7 4.4 23:03:55 10° SE 23:08:10 35° ENE 23:12:26 10° N
SL-16 R/B 2.2 23:05:23 10° NNW 23:11:03 65° ENE 23:16:40 10° SE
COSMO-SKYMED 1 3.2 23:08:54 10° N 23:13:12 63° WNW 23:17:29 10° SSW
SJ 16-02 2.8 23:11:01 10° SW 23:15:08 41° WNW 23:19:18 10° N
YAOGAN 1 2.6 23:11:28 10° SSE 23:15:40 58° ENE 23:19:55 10° N
CZ-4B R/B 4.3 23:12:09 10° ESE 23:16:28 25° ENE 23:20:51 10° N
Cosmos 1500 3.8 23:14:35 10° SSW 23:18:04 55° W 23:21:33 10° N
Cosmos 1464 Rocket 4.3 23:12:22 10° SSW 23:18:33 75° W 23:24:43 10° N
Resurs 01 Rocket 3.5 23:18:37 11° ENE 23:19:49 12° ENE 23:21:18 10° NE
IRIDIUM 104 4.3 23:15:01 10° S 23:20:13 83° E 23:25:28 10° N
Cosmos 1271 Rocket 3.3 23:17:14 10° SSE 23:20:25 30° E 23:23:38 10° NNE
USA 215 3.4 23:16:15 10° NE 23:22:48 78° NW 23:29:20 10° WSW
Meteor 2-6 Rocket 4.4 23:17:46 10° N 23:23:42 88° W 23:29:39 10° S
Meteor 1-27 Rocket 4.4 23:18:28 10° N 23:23:53 36° ENE 23:29:11 10° SE
Helios 1A 3.7 23:20:13 10° N 23:24:17 57° WNW 23:28:20 10° SSW
Cosmos 2322 Rocket 2.3 23:19:24 10° NNW 23:24:56 54° ENE 23:30:24 10° SE
Cosmos 1503 Rocket 4.4 23:22:16 10° S 23:27:02 40° ESE 23:31:50 10° NE
IRIDIUM 114 4.5 23:24:09 10° S 23:29:22 81° W 23:34:37 10° N
Meteor PRIRODA 3.4 23:25:59 10° SSE 23:29:24 87° WSW 23:32:50 10° NNW
Cosmos 158 Rocket 3.9 23:25:02 10° NNW 23:29:51 58° ENE 23:34:41 10° SSE
BREEZE-M DEB (TANK) 4.1 23:26:49 10° WNW 23:31:30 84° NNE 23:47:03 13° ESE
Lacrosse 4 Rocket 2.5 23:28:17 10° N 23:31:33 23° NE 23:33:25 17° E
Cosmos 1092 Rocket 4.0 23:25:37 10° N 23:31:42 57° E 23:37:42 10° SSE
NOSS 2-1 (C) 4.0 23:28:08 10° NW 23:32:21 77° SW 23:38:21 10° SSE
H-2A R/B 3.3 23:34:07 10° SSE 23:34:58 11° SSE 23:35:55 10° SE
Nadezhda 4 Rocket 4.3 23:30:45 10° NNW 23:36:55 70° W 23:42:59 10° S
Cosmos 1076 Rocket 3.9 23:33:21 10° SSW 23:37:32 65° W 23:41:47 10° N
Cosmos 836 Rocket 4.5 23:35:30 10° NNW 23:40:50 81° ENE 23:46:07 10° SSE
Cosmos 2360 Rocket 2.2 23:39:24 10° NNW 23:44:59 59° ENE 23:50:32 10° SE
NOSS 2-1 (E) 4.3 23:41:16 10° NW 23:45:35 65° WSW 23:51:42 10° SSE
CSL-04 Rocket 4.5 23:45:32 17° ESE 23:48:48 30° ENE 23:53:30 10° N
Cosmos 773 Rocket 4.1 23:43:40 10° NNW 23:48:53 56° ENE 23:54:03 10° SE
CZ-4 R/B 1.5 23:45:31 10° SSE 23:49:23 51° ENE 23:53:20 10° N
Cosmos 1842 Rocket 4.3 23:47:11 10° NNW 23:51:25 54° W 23:55:40 10° S
SJ-6B 2.7 23:48:26 10° SSE 23:51:58 54° ENE 23:55:33 10° N
ASTEX 1 3.6 23:48:09 10° NNE 23:52:52 45° E 23:57:35 10° SSE
Atlas Centaur 2 3.7 23:58:26 10° SSW 23:58:45 10° S 23:59:04 10° S
